カタログに戻る

TIANQI 36

運用中通信LEO
NORAD 62368·PAYLOAD·🇨🇳 China

打ち上げ Dec 19, 2024 から Yellow Sea Launch Area

Loading…

次のパス (今後24時間)

TLE

最新Source: Space-Track

元期: Sep 14, 2026, 12:09 UTC

1 62368U 24245D   26257.50652315 -.00000022  00000-0  73446-4 0  9994
2 62368  44.9843 284.0851 0006403  71.6157 288.5372 13.99207364 88855

AllMySatでTIANQI 36をリアルタイム追跡

Download on the App Store